User: anonymous   Login
Location: Unspecified
(0.0000°N, 0.0000°E)
Time: 03:30:39
(UTC+00:00)
Language:

GALILEO 10 (206) - Orbit

View from above orbital plane
View from above orbital plane
View from above satellite
View from above satellite

Ground track
Ground track

The orbit data is extracted from the following two-line orbital elements,

1 40890U 15045B   17348.31880242 -.00000074 +00000-0 +00000-0 0  9999
2 40890 056.8824 307.2164 0002478 311.2358 048.7204 01.70474514014073
Epoch (UTC): 14 December 2017 07:39:04
Eccentricity: 0.0002478
inclination: 56.8824°
perigee height: 23214 km
apogee height: 23229 km
right ascension of ascending node: 307.2164°
argument of perigee: 311.2358°
revolutions per day: 1.70474514
mean anomaly at epoch: 48.7204°
orbit number at epoch: 1407

The dashed part of the orbit path shows where the satellite is in the earth's shadow,  

DLR